Regional Weather Roundup
Issued by NWS Cleveland, OH

Home | Current Version | Previous Version | Graphics & Text | Print | Product List | Glossary On
Versions: 1 2 3 4 5 6 7 8 9 10 11 12 13 14 15 16 17 18 19 20 21 22 23 24 25 26 27 28 29 30 31 32 33 34 35 36 37 38 39 40 41 42 43 44 45 46 47 48 49 50
000
ASUS41 KCLE 212300
RWRCLE
OHIO REGIONAL WEATHER ROUNDUP
NATIONAL WEATHER SERVICE WILMINGTON, OH
700 PM EDT FRI JUL 21 2017

NOTE: "FAIR" INDICATES FEW OR NO CLOUDS BELOW 12,000 FEET WITH NO
SIGNIFICANT WEATHER AND/OR OBSTRUCTIONS TO VISIBILITY.

OHZ001>008-015>018-024>027-034-035-043-044-220000-
   NORTHWEST OHIO

CITY           SKY/WX    TMP DP  RH WIND       PRES   REMARKS
DEFIANCE       FAIR     N/A N/A N/A SW6       29.94F
FINDLAY        FAIR      87  68  52 SW6       29.94F HX  90
TOLEDO EXPRESS FAIR      86  69  56 S5        29.94F HX  90
TOLEDO EXEC    FAIR      86  69  56 VRB6      29.94F HX  90
LIMA           FAIR      83  72  69 SW9       29.97F
$$

OHZ009>014-019>023-028>033-038-089-220000-
   NORTHEAST OHIO

CITY           SKY/WX    TMP DP  RH WIND       PRES   REMARKS
CLE-HOPKINS    FAIR      85  69  58 N10       29.98R
CLE-LAKEFRONT  PTSUNNY   81  72  74 N6        29.96R HAZE
CUY CO. ARPT   PTSUNNY   84  70  61 N10       29.98R
LORAIN-ELYRIA  FAIR      82  66  58 N7        29.97S
ASHTABULA      FAIR      80  65  59 NW5       29.98R
AKRON-CANTON   PTSUNNY   90  67  46 W8        29.96R HX  93
WOOSTER        NOT AVBL
MANSFIELD      FAIR      85  71  63 W7        29.98S HX  90
YOUNGSTOWN     CLOUDY    85  67  54 N7        29.96S
$$

OHZ042-051>053-060>062-070>072-077>081-220000-
  SOUTHWEST OHIO

CITY           SKY/WX    TMP DP  RH WIND       PRES   REMARKS
CINC-COVINGTON FAIR      90  79  70 W7        29.95F HX 106
CINC-LUNKEN    CLOUDY    89  78  70 E3        29.94F HX 103
HAMILTON       PTSUNNY   88  76  67 N5        29.96F HX  99
DAYTON         NOT AVBL
WRIGHT-PAT AFB NOT AVBL
DAYTON GENERAL PTSUNNY   84  71  65 CALM      29.98S
WILMINGTON     FAIR      84  73  69 W8        29.99S HX  90
$$

OHZ036-037-039>041-045>050-054>059-063>069-073>076-082>088-220000-
  CENTRAL AND SOUTHEAST OHIO

CITY           SKY/WX    TMP DP  RH WIND       PRES   REMARKS
COLUMBUS       FAIR      84  73  69 W7        29.97S HX  90
OSU AIRPORT    FAIR      84  74  71 CALM      29.97F HX  91
BOLTON FIELD   SUNNY     81  73  78 W5        29.99S
RICKENBACK AFB NOT AVBL
NEWARK         FAIR      83  72  69 W6        29.97S
MARION         FAIR      86  68  54 NW6       29.97F
LANCASTER      FAIR      80  73  79 SW6       29.98F
ZANESVILLE     FAIR      81  73  76 SW6       29.98S
NEW PHILLY     FAIR      83  76  79 SW9       29.97R HX  91
$$




USA.gov is the U.S. government's official web portal to all federal, state and local government web resources and services.